STARLINK-2030 (47647 NORAD) Tracking and Keplerian Element Data

This shows tracking and keplerian element data for the satellite.

Feedback or suggestion? Click here.




ElementValue
Catalog47647
NameSTARLINK-2030
Epoch Orbit177
Epoch Day59.91667824
Epoch Year2021
RAAN38.6923
Inclination53.0515
Eccentricity0.0001156
Argument of Perigee70.9476
Mean Anonmoly134.7414
Mean Motion15.72589864
Decay Rate-0.00977409
L11 47647U 21012AD 21059.91667824 -.00977409 00000-0 -78806-2 0 9993
L22 47647 53.0515 38.6923 0001156 70.9476 134.7414 15.72589864 1770

Live tracking and technical data element details for STARLINK-2030 (NORAD 47647). STARLINK-2030 can be tracked NOW for your location showing map with azimuth and elevation plus other details from your city location.

Track the satellite on the map from your city or location and see movement details for azimuth, elevation, latitude, longitude, range, height, and movement on the map or in text.







IsCatalogInMostPopularTable: catalog: 47647, numindb: 4
Update: records affected: 1



GetName: 47647 STARLINK-2030

Hit Count: updated at: Mon, 01 Mar 2021 15:55:04 GMT